Temp
24 23 23 22 24 24 27 27 28 25 26 28 29 27 24 25 25 22 25 23 23 22 22 22 22 22 22 22 22 22 22 22 21 21 22 22 21 22 21 21 21 21 21 21 21 21 21 21 21
24 22 21 22 24 26 27 28 27 28 27 26 27 27 26 24 26 26 24 24 24 22 22 22 22 22 22 21 22 22 21 21 21 22 21 21 21 21 21 21 21 21 21 21 21 21 21 22 22
24 23 22 22 24 26 26 29 28 29 30 29 28 28 27 25 25 25 25 24 23 22 23 22 22 22 21 21 21 21 21 21 21 21 21 21 21 21 21 21 21 21 21 21 21 21 22 21 22
24 22 21 24 28 27 29 29 29 29 30 29 27 24 24 23 25 25 25 24 23 23 23 22 21 21 21 21 21 21 21 21 21 22 21 21 22 21 22 22 22 22 22 22 22 22 22 22 22
22 22 23 24 28 27 30 30 30 29 29 28 27 25 22 24 26 26 25 24 23 23 23 22 22 22 21 22 22 22 22 22 22 22 22 23 23 23 23 23 23 23 23 22 23 23 23 23 23
21 21 24 25 29 29 32 29 29 30 30 27 25 24 22 24 25 26 25 24 24 24 23 22 22 21 21 22 21 22 22 22 22 22 23 23 23 23 23 23 24 24 24 24 24 24 24 24 23
22 22 25 25 29 25 31 30 29 30 29 28 26 23 21 22 25 26 26 24 24 23 23 22 23 21 21 22 22 22 23 23 23 23 23 22 22 23 23 23 23 24 24 24 24 23 23 23 23
23 25 27 29 28 27 26 31 31 30 29 29 27 23 22 24 25 26 25 25 24 23 24 24 23 23 23 23 23 24 24 24 24 23 24 23 22 22 23 23 23 24 24 24 23 23 23 23 24
26 24 25 27 31 28 27 31 33 31 30 30 29 26 26 24 25 25 25 24 24 24 24 24 23 23 23 24 25 24 24 24 24 24 22 23 23 23 25 24 23 24 24 24 24 25 24 24 25
28 28 30 31 33 31 32 33 32 31 30 31 26 26 25 25 25 25 24 24 25 24 24 24 24 23 24 25 25 24 24 24 24 24 24 24 24 24 24 24 24 25 24 26 25 25 25 25 25
35 29 28 31 34 33 33 33 33 31 30 28 24 25 26 26 26 26 26 25 25 25 25 25 25 25 25 26 25 23 24 25 24 25 25 25 25 25 25 25 25 25 25 26 26 26 26 26 26
33 33 34 33 35 36 34 33 32 32 31 28 27 26 26 26 26 26 26 26 25 25 26 26 27 25 26 26 25 25 25 25 25 26 26 25 26 25 25 26 26 26 26 26 26 27 26 26 26
35 33 36 35 35 35 35 33 31 30 31 29 27 27 27 26 26 27 27 27 26 26 26 27 27 26 26 26 26 26 25 25 26 25 25 25 26 25 25 26 26 27 27 27 27 27 27 26 26
36 35 35 35 36 37 33 32 33 30 30 28 27 27 27 27 26 27 27 28 28 27 27 27 26 26 26 26 26 26 26 26 26 26 26 25 27 27 26 25 26 27 27 27 27 26 27 27 27
35 33 33 34 35 35 33 31 31 31 31 29 28 28 28 27 27 27 27 29 28 27 26 26 26 26 26 26 26 26 26 26 26 26 26 26 25 26 26 26 27 27 26 27 27 26 26 26 27
34 31 31 33 36 34 31 28 30 31 30 29 29 29 28 27 27 28 29 29 28 27 26 26 25 25 25 26 26 26 27 26 26 26 26 26 26 26 26 27 27 27 26 27 26 26 26 27 27
33 31 30 32 34 33 31 28 30 31 31 29 29 29 28 28 27 29 29 29 28 27 26 26 26 25 25 25 26 26 27 28 26 27 26 26 26 26 26 26 27 27 26 26 25 25 25 26 27
31 29 27 28 32 32 31 29 29 30 31 30 29 29 28 28 27 28 29 29 27 27 27 27 26 26 25 26 26 26 27 28 26 27 27 27 26 26 26 26 26 26 26 26 25 25 26 26 26
33 31 29 30 32 30 31 31 30 31 31 30 30 29 29 28 28 28 28 29 27 27 28 27 26 25 25 26 26 26 27 28 27 27 27 26 26 26 26 26 26 25 25 25 25 25 25 25 25
33 29 28 31 33 29 31 32 31 31 31 31 30 29 29 29 28 29 29 28 28 27 28 27 26 26 26 26 26 26 27 27 27 27 27 26 26 26 26 26 26 25 25 25 24 24 24 24 25
33 30 30 30 33 29 31 31 29 31 32 31 31 30 29 29 28 28 28 27 27 26 27 27 26 26 25 26 26 26 27 27 27 27 27 26 26 26 26 26 25 25 25 24 24 24 23 23 24
32 34 36 35 31 28 31 29 30 31 31 30 30 30 29 29 29 28 28 27 27 26 27 27 26 25 26 26 26 26 26 27 28 28 27 27 27 26 26 26 25 25 25 24 24 24 23 23 22
34 36 36 36 33 33 34 31 32 32 31 30 30 30 30 30 29 28 28 28 28 26 26 27 26 25 26 26 25 26 26 27 27 28 27 27 27 27 26 26 25 25 24 24 23 23 22 22 22
36 35 35 35 34 32 33 32 32 31 32 30 31 31 30 31 30 29 28 28 28 27 26 26 26 25 25 26 25 25 26 27 26 27 27 28 27 27 26 26 25 25 24 24 23 22 22 22 22
35 32 31 29 31 29 32 32 30 32 32 30 28 32 31 31 30 29 28 28 28 28 26 25 25 25 25 25 25 25 26 26 26 26 27 28 27 27 26 26 25 25 24 24 23 22 21 21 21
33 33 30 29 29 31 34 31 33 32 31 32 33 32 32 31 31 30 28 28 28 28 27 25 24 24 25 25 25 25 26 26 26 26 27 27 27 27 26 26 25 25 24 24 23 22 21 21 21
33 32 33 31 33 32 31 31 31 30 31 31 30 30 32 32 32 31 29 29 28 28 27 26 24 24 25 25 25 25 26 25 26 26 26 26 27 26 26 25 25 25 24 23 23 22 22 21 21
33 34 31 32 30 30 30 30 30 31 31 30 30 30 32 33 32 31 30 29 28 28 28 27 25 24 24 25 25 25 25 25 26 26 26 26 27 27 27 26 25 24 24 23 22 21 21 21 20
33 33 32 32 30 29 28 27 31 32 32 31 33 34 33 33 33 32 31 29 29 29 29 27 25 24 24 24 24 24 25 25 25 25 26 25 26 26 26 26 25 25 24 23 22 21 21 21 21
35 32 33 32 29 30 30 30 34 32 33 32 31 33 34 34 34 33 32 31 30 30 29 28 25 25 24 24 24 24 24 24 24 25 26 26 26 26 26 26 25 25 24 23 22 21 21 21 21
Height
770 775 777 777 788 790 787 781 766 785 784 770 764 774 790 789 796 822 797 802 803 807 809 811 812 813 815 817 818 818 818 819 820 821 821 821 822 822 823 824 824 824 824 824 826 827 828 828 828
771 775 777 778 795 795 791 770 778 772 772 771 773 779 787 800 787 792 799 801 803 806 809 810 812 815 816 819 819 820 821 822 822 823 824 825 826 826 826 826 826 825 826 826 827 828 828 830 830
774 776 778 789 791 795 795 768 770 766 761 768 777 777 786 798 791 796 800 801 804 807 809 811 814 816 818 820 821 822 822 823 824 825 825 826 827 827 828 827 828 828 828 828 828 829 830 831 832
769 779 785 793 780 779 772 766 764 765 762 767 775 793 792 794 794 798 800 802 804 808 810 813 815 817 819 821 822 823 824 824 825 825 826 827 827 827 827 826 827 828 829 829 830 830 831 831 831
759 778 794 798 779 769 760 758 759 768 767 774 774 793 798 794 795 799 801 803 806 808 811 814 817 818 821 822 823 824 824 824 826 826 826 826 827 828 828 828 827 827 828 828 828 828 829 829 829
780 792 801 804 776 764 754 752 761 763 765 775 786 791 800 795 798 800 802 804 806 808 812 815 818 820 821 823 825 825 825 826 826 826 826 827 829 831 831 829 828 827 827 827 827 828 828 828 828
794 800 798 791 776 783 761 752 762 762 769 775 778 798 802 798 799 802 804 806 808 810 812 816 818 821 822 824 825 826 826 826 826 825 827 829 829 828 829 831 830 827 825 825 825 827 828 829 829
774 781 788 772 783 783 770 751 749 759 768 765 771 797 803 794 800 800 802 806 808 811 813 816 820 821 823 825 826 826 826 827 827 830 838 837 830 829 830 830 829 827 828 826 826 828 829 828 829
755 788 799 782 761 767 757 754 747 751 763 762 766 774 783 791 798 799 803 808 810 812 814 817 820 822 824 825 826 828 828 827 829 835 838 832 835 829 828 828 830 829 828 824 825 825 825 828 829
761 773 775 747 742 753 743 745 751 759 767 765 776 775 785 791 796 798 803 806 808 811 814 818 820 822 825 826 828 829 830 828 831 833 836 838 833 831 829 829 830 830 826 824 823 824 824 822 824
737 769 759 738 734 736 739 745 745 758 770 769 780 782 786 790 795 798 802 804 805 809 814 819 820 823 825 826 827 829 831 831 832 835 833 831 830 832 831 831 831 830 826 823 823 823 823 822 822
745 734 732 728 726 732 742 742 755 754 758 762 769 776 785 789 792 796 799 802 804 809 812 817 820 823 825 827 828 829 833 833 833 833 833 834 833 833 832 829 832 828 825 824 822 821 822 822 822
733 739 729 721 724 728 734 749 753 760 755 761 772 780 784 790 793 796 796 798 802 807 811 817 819 824 827 827 828 831 833 834 833 834 834 833 833 832 831 830 831 829 827 824 823 822 821 821 820
725 730 736 722 724 726 746 753 746 760 755 765 774 781 783 788 790 794 796 795 801 804 810 815 818 823 825 828 829 830 833 834 834 835 835 835 830 831 831 831 831 830 829 826 825 824 820 820 818
729 746 740 734 730 739 735 760 762 753 754 766 773 777 780 786 789 791 793 795 798 803 809 814 818 823 826 828 829 831 834 835 834 835 835 834 832 831 832 831 831 831 829 827 826 824 824 822 820
741 752 773 745 731 736 741 786 756 745 752 764 768 773 778 782 786 788 791 793 797 802 808 813 818 823 825 827 829 830 832 835 836 835 836 836 835 834 834 834 833 831 830 828 825 824 823 821 821
749 776 776 760 733 741 748 777 754 743 748 758 763 768 776 778 783 785 789 793 797 801 807 812 818 823 825 827 828 829 830 833 835 835 836 836 836 835 835 834 833 832 830 829 827 826 824 823 821
774 778 786 784 749 747 758 762 753 743 747 755 759 762 769 774 777 782 788 793 796 800 806 812 818 821 825 827 828 829 829 831 834 834 835 836 836 835 834 834 834 832 831 831 829 827 825 823 822
750 762 773 762 747 761 762 756 752 741 745 752 755 757 763 769 772 779 786 791 796 801 806 811 816 819 823 827 827 828 829 830 834 833 834 835 835 835 834 834 833 833 832 832 830 828 827 825 823
745 768 777 749 740 762 750 749 744 738 736 741 750 756 758 764 769 775 782 787 792 797 804 810 814 818 822 826 827 829 829 831 831 833 834 834 835 835 834 834 834 834 832 831 830 828 827 826 824
742 760 761 764 748 756 752 760 759 740 736 742 745 750 757 760 765 771 777 783 789 794 800 807 812 816 820 824 827 829 829 830 832 833 834 834 835 834 834 835 834 834 833 832 831 830 828 828 827
754 727 723 731 760 786 737 786 752 742 742 744 748 749 752 756 761 768 772 780 785 790 797 803 809 814 818 822 825 827 828 829 830 831 832 834 834 834 834 834 834 833 832 832 830 830 830 829 829
733 709 719 722 741 743 733 760 736 732 747 742 742 747 748 750 756 762 767 774 780 787 792 799 805 810 815 819 822 824 827 828 829 829 831 832 832 833 833 834 834 833 833 832 832 832 832 831 831
703 714 716 721 732 766 741 744 742 736 727 737 737 740 742 744 751 758 764 771 776 783 789 795 800 805 811 816 819 821 824 826 828 829 829 830 831 831 833 833 833 832 832 833 832 832 832 833 833
707 732 768 780 771 780 725 739 747 710 714 722 735 734 734 736 744 753 759 765 770 777 784 790 795 801 807 812 815 818 821 823 826 827 827 828 829 828 829 831 831 831 832 832 833 832 833 833 834
714 724 760 793 785 762 719 757 732 706 713 709 705 707 721 726 730 742 751 757 763 771 778 784 789 795 802 807 811 815 818 820 823 824 825 826 827 826 828 830 830 830 831 831 832 832 833 833 833
709 726 709 743 730 751 748 739 721 715 709 704 706 709 708 716 719 730 741 749 756 764 771 776 783 790 796 802 807 810 814 817 819 821 823 824 825 828 828 828 827 827 829 830 831 832 832 832 832
693 689 734 727 767 776 752 750 743 719 721 714 709 712 704 705 712 721 731 741 749 756 764 771 777 783 790 796 801 806 809 813 816 818 819 821 824 825 825 824 824 825 826 828 829 830 831 831 831
696 704 704 712 731 761 776 760 697 701 696 706 701 683 693 693 700 710 721 731 741 750 757 764 771 778 785 790 795 801 805 808 812 813 815 818 820 820 820 821 822 823 824 825 827 828 829 829 830
674 692 695 726 742 727 736 741 677 681 683 681 692 680 677 681 689 700 711 723 735 743 751 757 764 771 777 783 790 794 799 802 806 808 810 813 814 815 816 818 818 819 821 823 825 827 827 827 828
Wind_Speed
14 12 6 2 2 2 5 9 14 11 6 2 12 11 10 4 2 6 20 28 23 19 18 17 14 13 14 12 11 11 12 11 13 11 12 12 12 13 12 11 11 10 9 9 9 9 8 7 5
17 13 7 3 2 4 7 12 16 13 11 15 15 13 8 5 5 10 16 27 21 20 16 16 15 14 12 12 11 11 11 12 12 11 12 11 11 10 10 10 8 9 8 8 8 7 5 5 4
15 11 2 2 3 3 4 16 16 15 17 8 6 11 7 12 7 8 27 28 28 21 16 15 14 13 12 12 12 12 11 11 11 10 9 11 9 9 9 8 7 7 6 5 5 4 3 3 3
6 4 3 3 7 4 3 18 20 14 13 5 14 10 5 3 4 16 28 28 23 18 17 15 15 14 13 13 13 12 11 11 11 9 9 8 7 7 6 6 5 5 4 3 3 2 2 2 3
11 3 4 3 3 7 7 18 18 12 7 11 10 8 4 2 22 25 25 26 23 18 17 15 13 14 12 12 12 11 11 9 8 9 7 7 6 5 3 3 4 2 1 1 1 1 1 3 4
7 3 3 2 7 9 12 16 7 12 14 12 10 9 3 5 23 25 26 27 21 19 17 16 13 14 12 12 13 10 10 8 8 7 5 5 4 3 2 1 1 2 1 1 1 2 3 5 7
8 2 3 6 10 2 13 15 9 17 12 9 17 6 2 3 18 15 19 26 20 19 18 15 14 14 12 12 11 9 8 8 7 5 4 3 3 2 0 5 4 3 3 3 3 3 7 9 10
10 4 8 6 9 6 7 12 13 13 6 18 15 8 9 15 17 21 28 23 23 20 14 14 15 14 12 11 10 9 8 7 5 3 5 3 1 5 9 6 9 6 6 7 6 5 6 4 5
6 4 1 7 7 13 11 14 13 13 14 8 10 11 22 27 22 28 25 24 22 20 15 15 16 14 11 9 12 11 8 6 5 3 12 2 4 3 4 3 5 3 3 6 5 3 2 4 8
5 4 5 8 6 12 17 18 15 11 16 7 15 22 30 26 22 21 20 19 19 21 21 17 15 15 12 12 12 10 6 4 4 5 8 8 8 3 6 1 3 1 2 3 6 5 7 9 7
10 6 7 12 7 18 16 20 16 18 15 20 24 24 22 22 22 18 19 21 25 23 20 20 18 17 16 8 9 10 6 5 6 7 6 4 4 5 4 1 3 5 5 4 7 6 2 8 5
4 15 15 10 8 13 19 12 11 13 14 22 24 25 19 18 13 19 21 23 23 24 23 20 14 19 17 7 7 13 8 12 7 10 9 11 7 5 6 3 6 11 2 2 9 10 7 5 5
3 2 8 18 14 8 19 14 12 14 18 23 23 21 18 16 17 21 27 29 25 27 24 23 15 16 13 9 15 11 7 10 7 8 10 11 13 9 11 6 3 11 10 8 6 7 10 11 7
6 8 9 11 7 10 17 5 13 13 24 24 24 20 17 16 16 19 20 24 19 26 32 25 19 14 12 13 10 10 5 7 12 10 9 14 10 9 15 12 8 7 8 6 8 13 10 16 13
2 4 9 6 7 17 12 6 4 17 21 24 23 20 18 19 24 20 22 21 27 32 28 22 18 14 12 12 12 7 4 8 10 11 13 11 6 10 12 12 11 15 13 18 12 15 14 14 18
3 4 3 4 8 6 9 3 10 11 22 20 20 18 15 11 22 24 17 22 33 31 28 22 19 15 10 14 10 3 6 6 13 11 10 11 7 6 10 10 11 14 12 15 13 15 19 17 19
2 1 3 11 2 2 4 3 12 7 19 20 20 19 18 16 15 18 18 15 28 31 28 23 22 18 12 13 7 3 4 7 11 11 10 7 8 8 11 7 8 12 10 15 16 17 17 16 20
2 6 1 5 8 13 8 8 7 13 19 18 19 21 20 17 17 23 25 20 24 32 26 26 27 22 17 12 9 5 7 2 12 12 10 6 6 7 11 9 6 12 11 14 14 17 15 13 17
3 7 8 6 18 14 12 9 11 16 13 18 16 21 19 20 19 25 29 28 27 31 25 26 29 26 20 18 12 7 8 7 12 11 5 6 3 4 9 9 11 12 12 11 13 17 16 17 18
12 10 4 6 12 7 19 12 17 19 19 20 18 20 20 18 14 25 26 28 32 33 28 26 27 26 21 20 17 10 10 6 14 11 5 5 1 4 7 9 10 10 12 8 13 14 15 14 18
16 9 10 11 6 14 14 14 15 19 14 16 16 17 19 21 18 20 21 30 29 34 34 29 27 25 22 18 16 7 6 10 11 8 7 6 3 2 2 3 7 9 11 11 11 12 13 13 14
16 14 14 18 8 13 11 4 21 20 18 19 18 16 22 21 20 16 19 28 30 32 37 34 26 26 24 20 16 13 9 7 4 8 8 7 5 5 2 2 3 5 8 7 8 10 11 11 14
17 19 18 18 14 13 13 6 11 22 21 22 21 20 16 21 23 21 21 27 31 34 36 38 31 27 27 24 15 15 14 10 6 10 14 12 8 9 5 5 2 2 3 3 4 6 9 9 10
17 18 17 14 10 9 10 6 5 21 28 20 19 21 22 17 24 22 30 29 29 34 34 38 36 31 28 27 21 17 17 15 4 13 11 7 9 13 9 8 3 1 1 2 3 5 7 9 10
19 12 8 5 5 6 10 5 3 6 17 23 17 21 24 21 23 22 22 26 30 30 34 37 39 35 31 28 27 20 20 19 13 6 12 10 8 7 16 11 5 3 1 2 2 5 3 7 8
16 13 7 7 6 8 5 1 1 12 19 24 26 22 24 25 23 25 24 31 33 31 36 36 38 36 37 31 31 27 23 18 14 13 11 11 9 4 14 6 4 5 2 1 1 3 3 5 6
19 13 11 8 15 5 4 2 5 3 9 15 11 11 20 26 25 24 27 34 35 37 36 37 38 36 40 38 31 30 29 25 21 19 17 17 15 9 8 8 7 6 3 2 2 2 1 3 3
11 11 8 7 11 9 3 5 6 11 15 12 6 11 13 26 25 24 25 35 37 39 35 38 40 38 38 40 38 32 30 29 29 25 22 18 17 12 9 8 8 9 4 4 4 3 3 0 2
15 13 10 4 6 6 4 6 8 12 10 11 12 17 21 26 26 24 25 36 40 37 35 34 38 37 36 38 37 36 36 32 30 29 26 21 18 15 13 12 10 11 7 6 6 4 5 3 0
19 11 13 9 8 5 4 5 4 10 3 4 7 11 25 25 24 23 22 33 37 36 34 33 38 38 38 39 36 35 34 35 34 33 32 26 21 26 22 17 16 15 9 8 10 7 8 6 3
Wind_Direction
124 119 122 304 289 230 151 92 119 125 150 113 66 101 108 51 48 139 134 129 128 125 121 117 116 116 115 113 109 102 100 100 94 95 101 97 91 91 89 89 90 96 98 99 96 92 96 101 102
124 121 61 336 251 117 105 133 127 113 133 113 101 114 66 81 50 105 116 132 122 120 124 123 123 120 121 118 115 113 105 102 101 98 95 93 94 93 93 90 89 92 93 94 90 85 79 82 74
123 57 84 306 290 154 140 118 121 131 128 108 105 90 88 113 54 97 123 123 126 130 125 125 125 123 113 114 112 107 110 108 103 103 101 100 100 93 91 89 85 84 89 95 91 76 62 30 21
147 138 50 259 130 23 147 127 134 145 120 109 112 80 68 339 104 132 129 130 127 127 128 124 124 122 119 121 112 114 109 109 116 115 111 106 106 108 102 103 104 99 102 102 93 77 11 349 334
106 55 95 251 152 143 163 134 153 136 110 136 129 114 81 46 138 136 132 133 130 132 133 129 130 124 123 122 119 111 116 119 119 120 118 120 111 105 101 102 108 99 107 174 194 283 307 306 311
52 5 349 324 136 162 135 123 133 124 135 103 90 99 80 157 144 146 142 140 142 136 135 134 133 128 124 126 118 122 123 120 128 129 128 116 90 56 8 354 40 55 347 283 294 307 318 325 328
91 242 285 320 154 101 138 140 166 134 137 124 137 92 161 254 154 159 155 138 137 135 136 141 140 134 130 128 133 130 132 130 132 137 133 98 73 107 17 300 296 298 313 300 307 356 1 358 348
159 190 333 279 214 104 226 155 163 143 133 136 136 149 177 172 140 120 132 134 139 138 132 141 143 142 137 135 135 133 129 118 120 107 62 42 96 11 338 277 274 283 341 329 342 17 22 347 8
130 83 333 295 152 138 248 142 147 153 141 176 174 146 161 160 149 123 127 142 149 144 146 142 145 141 134 136 134 130 129 125 133 72 55 92 163 146 19 231 284 356 325 304 2 52 39 19 52
167 139 198 239 120 150 169 140 158 129 160 142 92 114 147 162 168 145 142 147 149 161 165 159 159 160 154 133 137 140 105 66 68 39 72 131 121 135 224 320 241 76 323 14 46 48 57 46 102
236 147 173 273 163 164 178 151 135 146 141 138 137 142 155 168 156 157 157 160 172 174 174 163 161 170 164 161 170 152 158 111 95 52 59 57 41 42 40 321 4 7 226 26 27 28 101 50 144
349 150 196 238 147 141 108 106 109 125 140 139 142 148 158 156 166 159 176 174 185 184 175 160 161 174 196 165 180 160 116 142 107 65 57 50 46 63 45 23 32 47 74 324 11 355 341 287 325
49 45 225 114 120 143 107 117 123 133 125 132 137 153 161 158 173 174 177 185 192 189 174 165 142 161 131 108 153 144 128 126 86 88 55 32 26 36 30 58 37 59 51 41 5 356 346 322 324
311 3 305 117 122 130 95 71 129 159 130 136 148 169 158 161 171 190 187 191 183 144 147 151 136 144 133 127 131 141 133 116 117 96 81 61 77 75 34 49 73 49 21 326 332 1 8 7 24
42 360 348 111 151 113 101 70 80 145 140 148 159 171 164 165 176 196 211 185 145 142 143 152 159 160 154 150 147 168 133 157 126 95 85 74 63 36 27 43 58 36 40 51 27 28 27 19 21
297 82 54 310 103 162 102 204 234 172 147 156 160 162 164 185 182 192 188 149 148 145 144 147 150 161 167 170 152 172 161 138 164 115 97 79 40 69 41 46 33 37 57 24 24 22 23 21 17
31 104 310 293 189 13 104 204 241 201 154 161 168 166 168 189 166 179 184 167 156 152 148 150 162 164 166 167 170 136 169 141 148 121 114 74 49 47 25 27 23 26 42 28 24 18 18 18 21
152 126 33 271 317 339 261 222 235 215 163 170 174 170 174 174 170 176 193 188 157 155 154 162 168 161 170 185 167 159 174 136 152 139 132 102 64 21 22 24 11 32 32 22 24 21 26 18 12
142 123 148 206 287 312 281 233 211 189 168 169 187 172 173 168 180 175 180 185 149 160 161 169 167 164 166 176 181 194 196 173 151 140 103 102 28 36 25 32 33 35 26 26 24 23 30 27 6
272 134 218 296 257 252 273 263 186 192 186 176 188 176 171 170 165 177 181 175 164 166 169 175 169 167 170 175 182 203 228 234 162 132 118 152 263 20 14 22 6 19 10 27 40 30 24 28 35
264 160 171 212 112 304 307 292 189 208 180 177 191 176 177 178 173 176 167 165 167 166 174 177 172 173 172 179 194 186 159 142 142 150 162 180 220 19 339 13 356 14 28 66 43 37 32 23 41
257 198 200 235 168 227 149 228 193 187 186 178 184 202 181 181 181 172 167 168 173 170 177 181 176 179 181 187 201 206 181 174 198 204 201 189 203 258 214 226 338 14 23 26 37 34 44 40 33
245 260 232 236 206 256 240 212 213 176 186 181 179 191 193 187 184 182 178 173 177 175 177 183 184 186 191 195 198 206 203 200 255 217 180 194 240 241 200 213 9 38 22 62 51 32 32 36 38
252 247 260 268 250 233 253 191 203 180 192 171 180 186 195 186 183 183 183 181 181 175 177 182 184 188 195 202 201 206 206 203 236 176 190 229 250 253 217 215 199 135 222 45 68 49 48 45 43
242 248 254 289 281 219 245 278 318 122 152 143 177 200 190 191 174 184 181 181 186 179 176 180 185 187 194 202 206 203 201 215 223 213 204 227 273 315 211 214 201 190 162 28 66 86 79 39 46
242 228 208 227 232 243 70 212 224 139 146 167 181 176 189 187 188 178 182 181 188 190 179 179 182 186 191 199 207 208 205 209 208 215 208 218 268 326 184 211 194 209 234 250 63 131 78 54 48
238 243 220 221 258 280 124 351 4 204 166 202 217 199 183 189 186 181 179 182 187 194 181 180 181 186 193 198 204 210 213 213 215 213 220 231 238 249 247 198 209 218 220 200 183 171 124 78 93
223 222 246 233 237 252 209 188 197 195 187 226 227 255 225 184 184 177 181 183 188 190 186 181 182 184 190 200 202 205 211 216 221 225 230 234 240 247 232 221 228 221 220 204 220 200 203 346 137
237 239 229 215 177 215 175 253 206 189 226 179 213 237 203 179 181 175 182 178 184 187 182 178 179 183 188 193 202 207 212 218 221 222 224 229 227 222 215 221 236 236 213 218 220 222 207 221 305
233 226 214 222 273 236 204 256 122 146 205 263 126 21 187 181 174 175 169 171 178 182 183 179 177 183 190 195 198 203 211 215 219 223 225 223 224 232 236 237 232 229 230 220 222 218 221 230 241